| time (UTC) | temp F | wind direction | speed knots | gust knots | rain 1hr in | rain 24hr in | rain mn in | humidity % | barometer mb |
| 20260831024616 | 75 | 141 | 0.0 | 3.5 | 0.00 | 0.00 | 0.00 | 96 | 1019.9 |
| 20260831023055 | 75 | 0 | 0.0 | 0.0 | 0.00 | 0.00 | 0.00 | 96 | 1020.0 |
| 20260831021604 | 75 | 108 | 0.9 | 1.7 | 0.00 | 0.00 | 0.00 | 96 | 1020.1 |
| 20260831020103 | 75 | 0 | 0.0 | 0.0 | 0.00 | 0.00 | 0.00 | 96 | 1020.2 |
| 20260831014602 | 75 | 0 | 0.0 | 0.0 | 0.00 | 0.00 | 0.00 | 96 | 1020.2 |
| 20260831013056 | 75 | 0 | 0.0 | 0.9 | 0.00 | 0.00 | 0.00 | 96 | 1020.3 |
| 20260831011604 | 75 | 0 | 0.0 | 0.9 | 0.00 | 0.00 | 0.00 | 96 | 1020.3 |
| 20260831010130 | 75 | 0 | 0.0 | 0.9 | 0.00 | 0.00 | 0.00 | 96 | 1020.3 |
| 20260831004613 | 75 | 0 | 0.0 | 0.9 | 0.00 | 0.00 | 0.00 | 96 | 1020.1 |
| 20260831003110 | 75 | 0 | 0.0 | 1.7 | 0.00 | 0.00 | 0.00 | 95 | 1020.0 |
| 20260831001609 | 75 | 0 | 0.0 | 0.9 | 0.00 | 0.00 | 0.00 | 95 | 1020.0 |
| 20260831000057 | 75 | 0 | 0.0 | 0.9 | 0.00 | 0.00 | 0.00 | 94 | 1020.1 |
| 20260830234605 | 76 | 0 | 0.0 | 0.9 | 0.00 | 0.00 | 0.00 | 94 | 1020.1 |
| 20260830233104 | 76 | 0 | 0.0 | 0.9 | 0.00 | 0.00 | 0.00 | 93 | 1020.0 |
| 20260830231600 | 77 | 0 | 0.0 | 1.7 | 0.00 | 0.00 | 0.00 | 92 | 1019.8 |
| 20260830230109 | 77 | 148 | 0.0 | 1.7 | 0.00 | 0.00 | 0.00 | 91 | 1020.1 |
| 20260830224609 | 77 | 139 | 0.9 | 1.7 | 0.00 | 0.00 | 0.00 | 91 | 1020.1 |
| 20260830223104 | 78 | 127 | 0.9 | 3.5 | 0.00 | 0.00 | 0.00 | 90 | 1020.1 |
| 20260830221600 | 78 | 153 | 0.9 | 2.6 | 0.00 | 0.00 | 0.00 | 90 | 1020.2 |
| 20260830220126 | 79 | 139 | 0.0 | 2.6 | 0.00 | 0.00 | 0.00 | 89 | 1020.1 |
| 20260830214605 | 80 | 0 | 0.9 | 4.3 | 0.00 | 0.00 | 0.00 | 88 | 1019.9 |
| 20260830213103 | 81 | 110 | 0.9 | 4.3 | 0.00 | 0.00 | 0.00 | 85 | 1019.8 |
| 20260830211604 | 81 | 143 | 0.0 | 3.5 | 0.00 | 0.00 | 0.00 | 86 | 1019.8 |
| 20260830210111 | 82 | 142 | 0.0 | 4.3 | 0.00 | 0.00 | 0.00 | 85 | 1019.7 |
| 20260830204600 | 82 | 117 | 0.9 | 4.3 | 0.00 | 0.00 | 0.00 | 84 | 1019.7 |
| 20260830203115 | 82 | 179 | 0.9 | 5.2 | 0.00 | 0.00 | 0.00 | 84 | 1020.0 |
| 20260830201601 | 82 | 139 | 0.9 | 4.3 | 0.00 | 0.00 | 0.00 | 84 | 1020.1 |
| 20260830200105 | 82 | 145 | 0.0 | 4.3 | 0.00 | 0.00 | 0.00 | 85 | 1020.3 |
| 20260830194559 | 82 | 98 | 0.9 | 4.3 | 0.00 | 0.00 | 0.00 | 84 | 1020.5 |
| 20260830193106 | 82 | 193 | 0.9 | 7.0 | 0.00 | 0.00 | 0.00 | 84 | 1020.6 |
| 20260830191601 | 81 | 120 | 0.9 | 2.6 | 0.00 | 0.00 | 0.00 | 85 | 1020.7 |
| 20260830184558 | 81 | 250 | 0.0 | 3.5 | 0.00 | 0.00 | 0.00 | 85 | 1021.1 |
| 20260830183111 | 81 | 113 | 1.7 | 4.3 | 0.00 | 0.00 | 0.00 | 85 | 1021.2 |
| 20260830181623 | 81 | 123 | 0.9 | 3.5 | 0.00 | 0.00 | 0.00 | 86 | 1021.5 |
| 20260830180111 | 81 | 119 | 0.9 | 4.3 | 0.00 | 0.00 | 0.00 | 85 | 1021.5 |
| 20260830174556 | 81 | 138 | 0.9 | 2.6 | 0.00 | 0.00 | 0.00 | 86 | 1021.7 |
| 20260830173138 | 81 | 120 | 0.9 | 4.3 | 0.00 | 0.00 | 0.00 | 86 | 1021.9 |
| 20260830171606 | 81 | 160 | 0.9 | 3.5 | 0.00 | 0.00 | 0.00 | 84 | 1021.9 |
| 20260830170059 | 81 | 128 | 0.9 | 3.5 | 0.00 | 0.00 | 0.00 | 84 | 1022.1 |
| 20260830164608 | 81 | 0 | 0.0 | 1.7 | 0.00 | 0.00 | 0.00 | 82 | 1022.1 |
| 20260830163104 | 82 | 112 | 0.0 | 1.7 | 0.00 | 0.00 | 0.00 | 83 | 1022.4 |
| 20260830161634 | 81 | 105 | 0.9 | 3.5 | 0.00 | 0.00 | 0.00 | 80 | 1022.4 |
| 20260830160103 | 82 | 105 | 0.0 | 5.2 | 0.00 | 0.00 | 0.00 | 84 | 1022.6 |
| 20260830154601 | 80 | 84 | 0.9 | 2.6 | 0.00 | 0.00 | 0.00 | 83 | 1022.6 |
| 20260830153058 | 80 | 118 | 0.0 | 3.5 | 0.00 | 0.00 | 0.00 | 85 | 1022.8 |
| 20260830151603 | 79 | 98 | 1.7 | 4.3 | 0.00 | 0.00 | 0.00 | 86 | 1022.8 |
| 20260830150104 | 78 | 0 | 0.9 | 4.3 | 0.00 | 0.00 | 0.00 | 86 | 1022.9 |
| 20260830144605 | 79 | 0 | 0.0 | 5.2 | 0.00 | 0.00 | 0.00 | 89 | 1022.9 |
| 20260830143103 | 78 | 72 | 0.0 | 3.5 | 0.00 | 0.00 | 0.00 | 89 | 1022.9 |
| 20260830141602 | 76 | 0 | 0.0 | 2.6 | 0.00 | 0.00 | 0.00 | 92 | 1022.8 |
| 20260830140110 | 75 | 105 | 0.0 | 4.3 | 0.00 | 0.00 | 0.00 | 95 | 1022.8 |
| 20260830134600 | 74 | 85 | 0.0 | 1.7 | 0.00 | 0.00 | 0.00 | 100 | 1022.9 |
| 20260830133104 | 72 | 95 | 0.0 | 1.7 | 0.00 | 0.00 | 0.00 | 100 | 1023.1 |
| 20260830131616 | 71 | 0 | 0.0 | 2.6 | 0.00 | 0.00 | 0.00 | 100 | 1023.2 |
| 20260830130110 | 69 | 0 | 0.0 | 0.9 | 0.00 | 0.00 | 0.00 | 100 | 1023.5 |
| 20260830124606 | 68 | 0 | 0.0 | 0.0 | 0.00 | 0.00 | 0.00 | 100 | 1023.4 |
| 20260830123105 | 67 | 0 | 0.0 | 0.0 | 0.00 | 0.00 | 0.00 | 100 | 1023.5 |
| 20260830121607 | 65 | 0 | 0.0 | 0.0 | 0.00 | 0.00 | 0.00 | 100 | 1023.6 |
| 20260830120106 | 65 | 0 | 0.0 | 0.0 | 0.00 | 0.00 | 0.00 | 100 | 1023.5 |
| 20260830114552 | 64 | 0 | 0.0 | 0.0 | 0.00 | 0.00 | 0.00 | 100 | 1023.7 |
| 20260830113100 | 63 | 0 | 0.0 | 0.0 | 0.00 | 0.00 | 0.00 | 100 | 1023.6 |
| 20260830111559 | 63 | 0 | 0.0 | 0.0 | 0.00 | 0.00 | 0.00 | 100 | 1023.6 |
| 20260830110124 | 62 | 0 | 0.0 | 0.0 | 0.00 | 0.00 | 0.00 | 100 | 1023.7 |
| 20260830104553 | 62 | 0 | 0.0 | 0.0 | 0.00 | 0.00 | 0.00 | 100 | 1023.6 |
| 20260830103107 | 62 | 0 | 0.0 | 0.0 | 0.00 | 0.00 | 0.00 | 100 | 1023.5 |
| 20260830101602 | 62 | 0 | 0.0 | 0.0 | 0.00 | 0.00 | 0.00 | 99 | 1023.4 |
| 20260830100059 | 62 | 0 | 0.0 | 0.0 | 0.00 | 0.00 | 0.00 | 99 | 1023.5 |
| 20260830094605 | 62 | 0 | 0.0 | 0.0 | 0.00 | 0.00 | 0.00 | 99 | 1023.6 |
| 20260830093139 | 63 | 0 | 0.0 | 0.0 | 0.00 | 0.00 | 0.00 | 99 | 1023.4 |
| 20260830091556 | 63 | 0 | 0.0 | 0.0 | 0.00 | 0.00 | 0.00 | 99 | 1023.4 |
| 20260830090105 | 63 | 0 | 0.0 | 0.0 | 0.00 | 0.00 | 0.00 | 99 | 1023.3 |
| 20260830084605 | 63 | 0 | 0.0 | 0.0 | 0.00 | 0.00 | 0.00 | 99 | 1023.1 |
| 20260830083100 | 63 | 0 | 0.0 | 0.0 | 0.00 | 0.00 | 0.00 | 99 | 1023.2 |
| 20260830081555 | 63 | 0 | 0.0 | 0.0 | 0.00 | 0.00 | 0.00 | 99 | 1023.3 |
| 20260830080104 | 63 | 0 | 0.0 | 0.0 | 0.00 | 0.00 | 0.00 | 99 | 1023.3 |
| 20260830074656 | 63 | 0 | 0.0 | 0.0 | 0.00 | 0.00 | 0.00 | 99 | 1023.2 |
| 20260830073111 | 63 | 0 | 0.0 | 0.0 | 0.00 | 0.00 | 0.00 | 99 | 1023.4 |
| 20260830071624 | 63 | 0 | 0.0 | 0.0 | 0.00 | 0.00 | 0.00 | 99 | 1023.4 |
| 20260830064602 | 63 | 0 | 0.0 | 0.0 | 0.00 | 0.00 | 0.00 | 99 | 1023.4 |
| 20260830063059 | 63 | 0 | 0.0 | 0.0 | 0.00 | 0.00 | 0.00 | 99 | 1023.6 |
| 20260830061603 | 63 | 0 | 0.0 | 0.0 | 0.00 | 0.00 | 0.00 | 99 | 1023.8 |
| 20260830054555 | 63 | 0 | 0.0 | 0.0 | 0.00 | 0.00 | 0.00 | 99 | 1024.0 |
| 20260830053104 | 64 | 0 | 0.0 | 0.0 | 0.00 | 0.00 | 0.00 | 99 | 1024.2 |
| 20260830051605 | 63 | 0 | 0.0 | 0.0 | 0.00 | 0.00 | 0.00 | 99 | 1024.2 |
| 20260830050112 | 64 | 0 | 0.0 | 0.0 | 0.00 | 0.00 | 0.00 | 99 | 1024.2 |
| 20260830044553 | 64 | 0 | 0.0 | 0.0 | 0.00 | 0.00 | 0.00 | 99 | 1024.1 |
| 20260830043110 | 64 | 0 | 0.0 | 0.0 | 0.00 | 0.00 | 0.00 | 99 | 1024.0 |
| 20260830041659 | 64 | 0 | 0.0 | 0.0 | 0.00 | 0.00 | 0.00 | 99 | 1023.8 |
| 20260830034554 | 65 | 0 | 0.0 | 0.0 | 0.00 | 0.00 | 0.00 | 98 | 1023.4 |
| 20260830033104 | 65 | 0 | 0.0 | 0.0 | 0.00 | 0.00 | 0.00 | 98 | 1023.4 |
| 20260830031602 | 65 | 0 | 0.0 | 0.0 | 0.00 | 0.00 | 0.00 | 98 | 1023.4 |
| 20260830030109 | 65 | 0 | 0.0 | 0.0 | 0.00 | 0.00 | 0.00 | 98 | 1023.5 |